This demonstration page uses our WeatherBlox Daily Observations layout. Learn more.

Left ArrowRight Arrow

38.88101, -77.10428

Hourly Observations for May 6, 2020

Temp ( °F °C ) Dew Point ( °F °C ) Humidity (%) Winds ( mph kmh ) Pressure ( in mb ) Visibility ( mi km ) Precip ( " mm )
12:52 am 00:52 Cloudy with Drizzle 50 10 47 8.3 89 89 E 5 7 29.88 1012 9 14.48406 0.001 0.001
1:09 am 01:09 Cloudy with Drizzle 50 10 48 8.9 93 93 E 5 7 29.88 1012 10 16.0934 0.001 0.001
1:31 am 01:31 Cloudy 50 10 48 8.9 93 93 E 3 6 29.87 1012 10 16.0934 0.001 0.001
1:52 am 01:52 Cloudy 50 10 48 8.9 93 93 SE 5 7 29.86 1011 10 16.0934 0.001 0.001
1:56 am 01:56 Cloudy with Drizzle 50 10 48 8.9 93 93 ESE 5 7 29.86 1011 6 9.65604 0.001 0.001
2:52 am 02:52 Cloudy with Drizzle 50 10 48 8.9 93 93 ESE 7 11 29.84 1011 6 9.65604 0.001 0.001
2:59 am 02:59 Cloudy with Drizzle 50 10 48 8.9 93 93 ESE 6 9 29.83 1010 10 16.0934 0.001 0.001
3:38 am 03:38 Cloudy with Drizzle 50 10 47 8.3 89 89 E 8 13 29.82 1010 10 16.0934 0.001 0.001
3:52 am 03:52 Cloudy 50 10 48 8.9 93 93 ESE 9 15 29.81 1010 10 16.0934 0.001 0.001
4:23 am 04:23 Cloudy 50 10 48 8.9 93 93 Calm 29.81 1010 10 16.0934 0 0
4:52 am 04:52 Cloudy 50 10 48 8.9 93 93 E 5 7 29.8 1009 10 16.0934 0 0
5:48 am 05:48 Cloudy 52 11 48 9 88 88 SSE 6 9 29.8 1009 10 16.0934 0 0
5:52 am 05:52 Cloudy 51 10.6 49 9.4 92 92 SE 6 9 29.79 1009 10 16.0934 0 0
5:56 am 05:56 Cloudy 51 10.6 49 9.4 92 92 SE 6 9 29.8 1009 10 16.0934 0 0
6:17 am 06:17 Cloudy with Drizzle 51 10.6 49 9.4 92 92 SE 8 13 29.79 1009 5 8.0467 0.001 0.001
6:52 am 06:52 Cloudy with Drizzle 51 10.6 50 10 96 96 SSE 8 13 29.79 1009 3 4.82802 0.001 0.001
7:23 am 07:23 Cloudy with Drizzle 51 10.6 50 10 96 96 SSE 5 7 29.8 1009 2.5 4.02335 0.001 0.001
7:52 am 07:52 Cloudy with Light Rain 51 10.6 49 9.4 92 92 SSE 8 13 29.8 1009 2.5 4.02335 0.01 0.254
8:01 am 08:01 Cloudy with Light Rain 51 10.6 49 9.4 92 92 SSE 9 15 29.8 1009 1 1.60934 0.01 0.254
8:13 am 08:13 Cloudy with Light Rain 51 10.6 50 10 96 96 SSE 9 15 29.8 1009 1.25 2.011675 0.02 0.508
8:36 am 08:36 Cloudy with Mist and Fog 51 10.6 50 10 96 96 SSE 7 11 29.8 1009 2 3.21868 0.03 0.762
8:47 am 08:47 Cloudy with Mist and Fog 52 11 48 9 88 88 SE 7 11 29.79 1009 5 8.0467 0.03 0.762
8:52 am 08:52 Cloudy with Mist and Fog 51 10.6 49 9.4 92 92 SE 7 11 29.79 1009 5 8.0467 0.03 0.762
8:58 am 08:58 Cloudy with Drizzle 51 10.6 50 10 96 96 SSE 6 9 29.8 1009 5 8.0467 0.001 0.001
9:21 am 09:21 Cloudy with Drizzle 52 11.1 50 10 93 93 SE 6 9 29.79 1009 2.5 4.02335 0.001 0.001
9:52 am 09:52 Cloudy with Light Rain 52 11.1 50 10 93 93 SE 6 9 29.78 1009 1.75 2.816345 0.01 0.254
10:10 am 10:10 Cloudy with Mist and Fog 52 11.1 50 10 93 93 S 7 11 29.78 1008 4 6.43736 0.001 0.001
10:52 am 10:52 Cloudy with Drizzle 53 11.7 51 10.6 93 93 S 8 13 29.77 1008 4 6.43736 0.01 0.254
11:02 am 11:02 Cloudy with Drizzle 53 11.7 51 10.6 93 93 SSW 8 13 29.77 1008 4 6.43736 0.001 0.001
11:29 am 11:29 Cloudy 54 12.2 52 11.1 93 93 SSW 7 11 29.76 1008 7 11.26538 0.001 0.001
11:52 am 11:52 Cloudy 56 13.3 51 10.6 84 84 SSW 9 15 29.75 1008 10 16.0934 0.001 0.001
12:12 pm 12:12 Cloudy 56 13.3 51 10.6 84 84 WSW 13 20 29.75 1007 10 16.0934 0 0
12:18 pm 12:18 Cloudy with Light Rain 55 12.8 51 10.6 87 87 WSW 8 13 29.75 1007 5 8.0467 0.001 0.001
12:38 pm 12:38 Cloudy 56 13.3 52 11.1 87 87 WNW 5 7 29.75 1007 10 16.0934 0.001 0.001
12:52 pm 12:52 Cloudy 57 13.9 51 10.6 81 81 N 7 11 29.75 1007 10 16.0934 0.001 0.001
12:58 pm 12:58 Cloudy with Light Rain 55 12.8 49 9.4 80 80 N 9 15 29.74 1007 10 16.0934 0.001 0.001
1:24 pm 13:24 Mostly Cloudy 55 12.8 50 10 83 83 N 7 11 29.74 1007 10 16.0934 0.001 0.001
1:52 pm 13:52 Mostly Cloudy 57 13.9 50 10 78 78 N 6 9 29.74 1007 10 16.0934 0.001 0.001
2:26 pm 14:26 Cloudy with Light Rain 55 12.8 46 7.8 72 72 NW 13 20 29.75 1007 8 12.87472 0.001 0.001
2:52 pm 14:52 Cloudy 54 12.2 47 8.3 77 77 NW 16 26 29.75 1007 10 16.0934 0.001 0.001
3:52 pm 15:52 Cloudy 56 13.3 46 7.8 70 70 NNW 12 19 29.75 1007 10 16.0934 0 0
4:52 pm 16:52 Cloudy 56 13.3 42 5.6 60 60 NNW 14 22 29.75 1008 10 16.0934 0 0
5:52 pm 17:52 Mostly Cloudy 57 13.9 41 5 55 55 NW 14 22 29.77 1008 10 16.0934 0 0
6:52 pm 18:52 Mostly Cloudy 54 12.2 38 3.3 55 55 NNW 17 28 29.79 1009 10 16.0934 0 0
7:52 pm 19:52 Mostly Cloudy 52 11.1 38 3.3 59 59 NW 13 20 29.8 1009 10 16.0934 0 0
8:52 pm 20:52 Cloudy 50 10 38 3.3 63 63 NW 16 26 29.83 1010 10 16.0934 0 0
9:52 pm 21:52 Cloudy 48 8.9 40 4.4 74 74 NW 17 28 29.84 1010 10 16.0934 0 0
9:59 pm 21:59 Cloudy 48 8.9 41 5 77 77 NW 13 20 29.84 1011 10 16.0934 0 0
10:52 pm 22:52 Cloudy 48 8.9 41 5 77 77 NW 16 26 29.85 1011 10 16.0934 0 0
11:37 pm 23:37 Cloudy with Light Rain 47 8.3 44 6.7 90 90 NNW 16 26 29.86 1011 9 14.48406 0.001 0.001
11:52 pm 23:52 Cloudy with Light Rain 47 8.3 44 6.7 90 90 NNW 14 22 29.86 1011 9 14.48406 0.001 0.001

Powered by AerisWeather